KUIPER-00041

Last updated on Thu Jul 03 2025 00:02:07 GMT+0000 (Coordinated Universal Time)

1 64502U 25134C 25183.58335648 -.00000245 00000+0 41075-5 0 9996 2 64502 51.8683 287.0383 0010418 153.9523 267.6278 15.34098334 1305
UTC large
Height (km)
Speed (km/s)
/
Latitude / Longitude
Inclination (degrees)
Orbital Period (minutes)
Azimuth
Elevation
Range (km)
Doppler Factor

Next 0 passes for location: London (51.5072 / 0.1276)

Sorry there are no passes over London.